Location: Koszewko
(53.2876°N, 14.9061°E)
Time: 22:58:27
(UTC+00:00)

ARGOS - Pass Details

Date: 03 March 2021
Orbit: 819 x 835 km, 98.4° (Epoch: 12 April)

Event Time Altitude Azimuth Distance (km) Brightness Sun altitude
Rises 17:50:27 0° 166° (SSE) 3,370 6.1 -10.9°
Reaches altitude 10° 17:52:48 10° 167° (SSE) 2,442 5.4 -11.3°
Maximum altitude 17:58:14 80° 255° (WSW) 855 3.3 -12.1°
Drops below altitude 10° 18:03:43 10° 343° (NNW) 2,461 5.9 -12.9°
Sets 18:06:05 0° 345° (NNW) 3,399 6.7 -13.3°
